Location: Eaton Estates
(41.3089°N, 82.0057°W)
Time: 00:19:32
(UTC+00:00)

Cosmos 1726 - Pass Details

Date: 17 June 2021
Orbit: 480 x 495 km, 82.5° (Epoch: 02 August)

Event Time Altitude Azimuth Distance (km) Brightness Sun altitude
Rises 02:56:03 0° 336° (NNW) 2,549 7.3 -16.2°
Reaches altitude 10° 02:58:30 10° 320° (NW) 1,665 6.1 -16.5°
Maximum altitude 03:01:15 21° 271° (W) 1,146 4.4 -16.8°
Drops below altitude 10° 03:04:00 10° 221° (SW) 1,657 4.6 -17.1°
Enters shadow 03:04:30 - 217° (SW) 1,820 4.8 -17.2°
